Regional Weather Roundup
Issued by NWS

Home | Current Version | Previous Version | Text Only | Print | Product List | Glossary Off
Versions: 1 2 3 4 5 6 7 8 9 10 11 12 13 14 15 16 17 18 19 20 21 22 23 24 25 26 27 28 29 30 31 32 33 34 35 36 37 38 39 40 41 42 43 44 45 46 47 48 49 50

000
ASUS43 KMKX 172321
RWRWI

WISCONSIN REGIONAL WEATHER ROUNDUP
NATIONAL WEATHER SERVICE MILWAUKEE/SULLIVAN WI
500 PM CST FRI NOV 17 2017

NOTE: "FAIR" INDICATES FEW OR NO CLOUDS BELOW 12,000 FEET WITH NO
SIGNIFICANT WEATHER AND/OR OBSTRUCTIONS TO VISIBILITY.

WIZ001-002-006>008-014>016-023>028-180000-
NORTHWEST WISCONSIN

CITY           SKY/WX    TMP DP  RH WIND       PRES   REMARKS
SUPERIOR ARPT  CLOUDY    33  33 100 S3        29.66S FOG
ASHLAND        CLOUDY    33  31  92 N3        29.65S FOG
HAYWARD        CLOUDY    34  33  96 CALM      29.62R FOG
SIREN          CLOUDY    34  34  98 CALM      29.65R FOG
CUMBERLAND     CLOUDY    32  32 100 SE5       29.60F FOG     WCI  27
RICE LAKE      CLOUDY    35  35 100 SE3       29.63R FOG
CHETEK         CLOUDY    34  34 100 CALM      29.62R FOG
LADYSMITH      LGT RAIN  34  34  98 CALM      29.64R
EAU CLAIRE     CLOUDY    36  35  96 SE5       29.61F FOG     WCI  32
MENOMONIE      CLOUDY    36  36 100 E5        29.62S FOG     WCI  32
NEW RICHMOND   CLOUDY    36  35  99 CALM      29.63R FOG
OSCEOLA        CLOUDY    36  36 100 S3        29.66R
$$

WIZ003>005-009-010-017-018-180000-
NORTH CENTRAL WISCONSIN

CITY           SKY/WX    TMP DP  RH WIND       PRES   REMARKS
MANITOWISH WTR LGT SNOW  32  32 100 CALM      29.61F
ARBOR VITAE    LGT SNOW  34  33  96 S3        29.61F
WOODRUFF       LGT SNOW  34  33  96 S3        29.61F
RHINELANDER    CLOUDY    32  32 100 SW6       29.63F FOG     WCI  26
EAGLE RIVER    MIX PCPN  32  32 100 SW3       29.62F
LAND O LAKES   LGT SNOW  34  32  93 CALM      29.63F VSB 1
PHILLIPS       CLOUDY    32  32 100 S3        29.61F
TOMAHAWK       DRIZZLE   32  31  97 CALM      29.64F
MEDFORD        DRIZZLE   32  32 100 CALM      29.62F
MERRILL        RAIN      33  33 100 CALM      29.65F
$$

WIZ029-030-035-036-043>047-180000-
CENTRAL WISCONSIN

CITY           SKY/WX    TMP DP  RH WIND       PRES   REMARKS
WAUSAU         CLOUDY    33  33 100 SE3       29.63F FOG
MOSINEE        DRIZZLE   34  34 100 S3        29.65F
MARSHFIELD     LGT RAIN  34  33  96 S5        29.63S FOG     WCI  30
STEVENS POINT  DRIZZLE   33  33 100 CALM      29.66S
WAUPACA        LGT RAIN  39  36  87 S5        29.66S
WAUTOMA        MIX PCPN  36  35  96 S5        29.65F FOG     WCI  32
WISC RAPIDS    LGT RAIN  36  35  96 CALM      29.66F FOG
CAMP DOUGLAS   CLOUDY    36  36 100 CALM      29.63F FOG
$$

WIZ011>013-019>022-031-037>040-048>050-180000-
NORTHEAST WISCONSIN

CITY           SKY/WX    TMP DP  RH WIND       PRES   REMARKS
ANTIGO         CLOUDY    32  32 100 S3        29.64F FOG
SHAWANO        RAIN      38  35  90 CALM      29.67F
OCONTO         CLOUDY    37  36  93 SW5       29.68S WCI  34
STURGEON BAY   LGT RAIN  41  38  89 S18G26    29.66F
GREEN BAY      RAIN      39  38  96 S8        29.67F WCI  33
MANITOWOC      NOT AVBL
APPLETON       LGT RAIN  37  34  87 S8        29.65F WCI  31
CLINTONVILLE   LGT RAIN  37  34  87 SW5       29.67S WCI  34
OSHKOSH        CLOUDY    38  37  97 S10       29.64F FOG     WCI  31
$$

WIZ032>034-041-042-053>061-180000-
SOUTHWEST WISCONSIN

CITY           SKY/WX    TMP DP  RH WIND       PRES   REMARKS
LA CROSSE      CLOUDY    39  38  96 E6        29.62F WCI  35
SPARTA         DRIZZLE   35  35 100 E3        29.64F
VIROQUA        CLOUDY    36  36 100 SE3       29.61F
BOSCOBEL       LGT RAIN  40  37  89 CALM      29.63F FOG
PRAIRIE DU CHI CLOUDY    38  37  94 E5        29.61F FOG     WCI  35
PLATTEVILLE    CLOUDY    38  38 100 SE8       29.62F WCI  32
$$

WIZ056-057-062-063-064-067-068-180000-
SOUTH CENTRAL WISCONSIN

CITY           SKY/WX    TMP DP  RH WIND       PRES   REMARKS
REEDSBURG      CLOUDY    36  36 100 SE5       29.63F FOG     WCI  32
BARABOO/DELLS  CLOUDY    36  35  96 S6        29.62F FOG     WCI  31
LONE ROCK      LGT RAIN  38  38 100 E5        29.63F VSB 1   WCI  34
MINERAL POINT  LGT RAIN  37  37 100 SE7       29.62F WCI  32
MADISON        DRIZZLE   37  36  96 S10       29.65S FOG     WCI  30
MIDDLETON      CLOUDY    39  38  97 S7        29.65F WCI  34
WATERTOWN      TSTM      39  39 100 S12       29.66F WCI  32
MONROE         TSTM      36  36 100 S12       29.63F WCI  27
JANESVILLE     RAIN      39  39 100 S13G21    29.67F WCI  32
$$

WIZ051-052-058>065-066-070>072-180000-
SOUTHEAST WISCONSIN

CITY           SKY/WX    TMP DP  RH WIND       PRES   REMARKS
MILWAUKEE      DRIZZLE   41  39  93 S13G22    29.68F FOG
WAUKESHA       CLOUDY    37  36  93 S14G24    29.67F WCI  29
MILWAUKEE/TIMM CLOUDY    41  34  75 S16       29.68F
RACINE         CLOUDY    42  38  85 S18G33    29.69F
BURLINGTON     CLOUDY    41  41 100 S9G16     29.68F FOG
KENOSHA        CLOUDY    41  37  86 S15       29.69F
FOND DU LAC    LGT RAIN  39  34  82 S9        29.65F WCI  33
SHEBOYGAN      CLOUDY    41  37  86 S20G26    29.66F
WEST BEND      CLOUDY    37  34  87 S8        29.66F WCI  31
JUNEAU         TSTM      38  36  93 S7        29.67F WCI  32
$$

LSZ147-162-180000-
LAKE SUPERIOR

STATION/POSITION TIME  TEMP    WIND        PRES    WAVE
                       AIR SEA DIR/SP/G            HT/PER
                 (UTC) (F)     (DEG/KT/KT) (MB)    (FT/S)
DEVILS ISLAND    2300   36     250/  8/  9 1004.9S
SAXON HARBOR     2240   34     270/  2/  3 1003.7R
$$

LMZ867-665-643>646-180000-
LAKE MICHIGAN

STATION/POSITION TIME  TEMP    WIND        PRES    WAVE
                       AIR SEA DIR/SP/G            HT/PER
                 (UTC) (F)     (DEG/KT/KT) (MB)    (FT/S)
N MID LAKE BUOY  2250   44 49  180/ 25/ 31 1005.7F   8/ 8
NORTHPORT PIER   2240   42     160/ 10/ 21 1005.4S
SHEBOYGAN LAKESH 2300   43     170/ 28/ 31 1004.1F
PORT WASHINGTON  2243   43     170/ 19     1005.8F
MILWAUKEE LAKESH 2220   43     170/ 18/ 22   N/A
S MID LAKE BUOY  2250   46 50  150/ 25/ 29 1007.0F   7/ 6
KENOSHA   LAKESH 2300   43     170/ 20/ 25 1005.8
$$

TC  - TEMPERATURE IN CELSIUS
VSB - VISIBILITY IN STATUTE MILES
WCI - WIND CHILL INDEX
HX  - HEAT INDEX





USA.gov is the U.S. government's official web portal to all federal, state and local government web resources and services.